Location: Bidart
(43.4376°N, 1.5913°W)
Time: 17:40:35
(UTC+00:00)

USA 229 DEB - Pass Details

Date: 25 April 2026
Orbit: 844 x 1364 km, 63.4° (Epoch: 10 January)

Event Time Altitude Azimuth Distance (km) Brightness Sun altitude
Rises 20:52:12 0° 321° (NW) 3,857 8.2 -18.2°
Reaches altitude 10° 20:55:34 10° 337° (NNW) 2,995 7.0 -18.7°
Maximum altitude 21:00:52 21° 25° (NNE) 2,399 5.7 -19.4°
Drops below altitude 10° 21:06:34 10° 72° (ENE) 3,261 6.0 -20.2°
Enters shadow 21:07:50 - 78° (ENE) 3,584 6.1 -20.3°
